This is the latest recevied weather packets stored in our database for station/object DJ4CK-1. If no packets are shown the sender has not sent any weather packets the latest 1 day(s).
| Time | Temp. | Humidity | Pressure | Rain* | Wind** | Luminosity | Snow |
|---|---|---|---|---|---|---|---|
| 1777972023 | 21.67° C | 40% | 1008.5 hPa | 0 mm | 0.45 m/s, 276° | - | - |
| 1777971963 | 21.67° C | 42% | 1008.5 hPa | 0 mm | 0.45 m/s, 287° | - | - |
| 1777971903 | 21.11° C | 42% | 1008.6 hPa | 0 mm | 0.45 m/s, 290° | - | - |
| 1777971843 | 20.56° C | 41% | 1008.6 hPa | 0 mm | 0.89 m/s, 288° | - | - |
| 1777971783 | 20.56° C | 41% | 1008.6 hPa | 0 mm | 0.89 m/s, 285° | - | - |
| 1777971724 | 20.56° C | 42% | 1008.6 hPa | 0 mm | 1.34 m/s, 280° | - | - |
| 1777971663 | 20.56° C | 42% | 1008.6 hPa | 0 mm | 1.79 m/s, 274° | - | - |
| 1777971603 | 20.56° C | 43% | 1008.6 hPa | 0 mm | 1.79 m/s, 268° | - | - |
| 1777971543 | 20.56° C | 42% | 1008.6 hPa | 0 mm | 1.34 m/s, 265° | - | - |
| 1777971483 | 20.56° C | 42% | 1008.6 hPa | 0 mm | 0.89 m/s, 260° | - | - |
| 1777971423 | 20.56° C | 41% | 1008.6 hPa | 0 mm | 0.89 m/s, 252° | - | - |
| 1777971363 | 20.56° C | 41% | 1008.6 hPa | 0 mm | 0.89 m/s, 242° | - | - |
| 1777971304 | 20.56° C | 41% | 1008.6 hPa | 0 mm | 0.89 m/s, 235° | - | - |
| 1777971243 | 21.11° C | 41% | 1008.6 hPa | 0 mm | 0.89 m/s, 231° | - | - |
| 1777971183 | 21.11° C | 41% | 1008.6 hPa | 0 mm | 0.89 m/s, 227° | - | - |
| 1777971123 | 21.11° C | 43% | 1008.6 hPa | 0 mm | 0.89 m/s, 226° | - | - |
| 1777971063 | 20.56° C | 44% | 1008.6 hPa | 0 mm | 0.89 m/s, 227° | - | - |
| 1777971004 | 20.56° C | 44% | 1008.6 hPa | 0 mm | 1.34 m/s, 227° | - | - |
| 1777970943 | 20.56° C | 42% | 1008.6 hPa | 0 mm | 1.34 m/s, 226° | - | - |
| 1777970883 | 20.56° C | 42% | 1008.6 hPa | 0 mm | 1.34 m/s, 224° | - | - |
| 1777970823 | 20.56° C | 43% | 1008.6 hPa | 0 mm | 0.89 m/s, 217° | - | - |
| 1777970763 | 20.56° C | 43% | 1008.6 hPa | 0 mm | 0.89 m/s, 211° | - | - |
| 1777970703 | 21.11° C | 44% | 1008.6 hPa | 0 mm | 0.45 m/s, 209° | - | - |
| 1777970643 | 20.56° C | 45% | 1008.6 hPa | 0 mm | 0.89 m/s, 201° | - | - |
| 1777970584 | 20.56° C | 45% | 1008.6 hPa | 0 mm | 0.89 m/s, 189° | - | - |
* Rain latest hour (hover to see other rain measurements)
** Current wind speed in m/s (hover to see current wind gust speed)